Time,TemperatureF,DewpointF,PressureIn,WindDirection,WindDirectionDegrees,WindSpeedMPH,WindSpeedGustMPH,Humidity,HourlyPrecipIn,Conditions,Clouds,dailyrainin,SoftwareType,DateUTC
2013-03-08 00:02:00,36.0,26.0,30.18,NNW,342,5.0,-999.0,66,-99.99,,,-99.99,,2013-03-08 05:02:00,
2013-03-08 00:12:00,36.0,26.0,30.18,NNW,342,5.0,-999.0,66,-99.99,,,-99.99,,2013-03-08 05:12:00,
2013-03-08 00:22:00,36.0,26.0,30.19,NNW,329,3.0,-999.0,66,-99.99,,,-99.99,,2013-03-08 05:22:00,
2013-03-08 00:32:00,35.0,25.0,30.18,NW,313,4.0,-999.0,66,-99.99,,,-99.99,,2013-03-08 05:32:00,
2013-03-08 00:42:00,35.0,25.0,30.18,NW,313,4.0,-999.0,66,-99.99,,,-99.99,,2013-03-08 05:42:00,
2013-03-08 00:52:00,35.0,25.0,30.19,NNW,344,4.0,-999.0,67,-99.99,,,-99.99,,2013-03-08 05:52:00,
2013-03-08 01:02:00,35.0,25.0,30.19,NW,320,3.0,-999.0,67,-99.99,,,-99.99,,2013-03-08 06:02:00,
2013-03-08 01:11:00,35.0,25.0,30.19,NW,320,3.0,-999.0,67,-99.99,,,-99.99,,2013-03-08 06:11:00,
2013-03-08 01:22:00,36.0,26.0,30.19,NNW,337,4.0,-999.0,67,-99.99,,,-99.99,,2013-03-08 06:22:00,
2013-03-08 01:32:00,36.0,26.0,30.19,NNW,330,3.0,-999.0,67,-99.99,,,-99.99,,2013-03-08 06:32:00,
2013-03-08 01:42:00,36.0,26.0,30.19,NNW,330,3.0,-999.0,67,-99.99,,,-99.99,,2013-03-08 06:42:00,
2013-03-08 01:52:00,36.0,26.0,30.19,NW,304,2.0,-999.0,67,-99.99,,,-99.99,,2013-03-08 06:52:00,
2013-03-08 02:01:00,36.0,26.0,30.19,NW,323,1.0,-999.0,67,-99.99,,,-99.99,,2013-03-08 07:01:00,
2013-03-08 02:11:00,36.0,26.0,30.19,NW,323,1.0,-999.0,67,-99.99,,,-99.99,,2013-03-08 07:11:00,
2013-03-08 02:22:00,36.0,26.0,30.19,NW,313,2.0,-999.0,68,-99.99,,,-99.99,,2013-03-08 07:22:00,
2013-03-08 02:32:00,36.0,26.0,30.18,North,0,1.0,-999.0,68,-99.99,,,-99.99,,2013-03-08 07:32:00,
2013-03-08 02:42:00,36.0,26.0,30.18,North,0,1.0,-999.0,68,-99.99,,,-99.99,,2013-03-08 07:42:00,
2013-03-08 02:52:00,36.0,27.0,30.18,NNW,342,1.0,-999.0,69,-99.99,,,-99.99,,2013-03-08 07:52:00,
2013-03-08 03:01:00,36.0,27.0,30.18,NW,323,5.0,-999.0,70,-99.99,,,-99.99,,2013-03-08 08:01:00,
2013-03-08 03:11:00,36.0,27.0,30.18,NW,323,5.0,-999.0,70,-99.99,,,-99.99,,2013-03-08 08:11:00,
2013-03-08 03:22:00,36.0,27.0,30.17,NNW,336,6.0,-999.0,70,-99.99,,,-99.99,,2013-03-08 08:22:00,
2013-03-08 03:32:00,36.0,27.0,30.17,NW,323,4.0,-999.0,70,-99.99,,,-99.99,,2013-03-08 08:32:00,
2013-03-08 03:42:00,36.0,27.0,30.17,NW,323,4.0,-999.0,70,-99.99,,,-99.99,,2013-03-08 08:42:00,
2013-03-08 03:52:00,36.0,27.0,30.17,NW,315,6.0,-999.0,70,-99.99,,,-99.99,,2013-03-08 08:52:00,
2013-03-08 04:03:00,36.0,26.0,30.17,NNW,328,8.0,-999.0,68,-99.99,,,-99.99,,2013-03-08 09:03:00,
2013-03-08 04:11:00,36.0,26.0,30.17,NNW,328,8.0,-999.0,68,-99.99,,,-99.99,,2013-03-08 09:11:00,
2013-03-08 04:21:00,36.0,26.0,30.18,NNW,332,9.0,-999.0,67,-99.99,,,-99.99,,2013-03-08 09:21:00,
2013-03-08 04:32:00,36.0,26.0,30.18,NW,306,8.0,-999.0,66,-99.99,,,-99.99,,2013-03-08 09:32:00,
2013-03-08 04:42:00,36.0,26.0,30.18,NW,306,8.0,-999.0,66,-99.99,,,-99.99,,2013-03-08 09:42:00,
2013-03-08 04:52:00,36.0,25.0,30.18,NW,318,6.0,-999.0,65,-99.99,,,-99.99,,2013-03-08 09:52:00,
2013-03-08 05:01:00,36.0,25.0,30.18,NNW,333,5.0,-999.0,63,-99.99,,,-99.99,,2013-03-08 10:01:00,
2013-03-08 05:11:00,36.0,25.0,30.18,NNW,333,5.0,-999.0,63,-99.99,,,-99.99,,2013-03-08 10:11:00,
2013-03-08 05:21:00,36.0,25.0,30.18,NNW,329,5.0,-999.0,63,-99.99,,,-99.99,,2013-03-08 10:21:00,
2013-03-08 05:32:00,36.0,24.0,30.18,NNW,342,5.0,-999.0,62,-99.99,,,-99.99,,2013-03-08 10:32:00,
2013-03-08 05:42:00,36.0,24.0,30.18,NNW,342,5.0,-999.0,62,-99.99,,,-99.99,,2013-03-08 10:42:00,
2013-03-08 05:52:00,36.0,24.0,30.19,NNW,335,6.0,-999.0,62,-99.99,,,-99.99,,2013-03-08 10:52:00,
2013-03-08 06:01:00,36.0,25.0,30.19,NW,322,6.0,-999.0,63,-99.99,,,-99.99,,2013-03-08 11:01:00,
2013-03-08 06:11:00,36.0,25.0,30.19,NW,322,6.0,-999.0,63,-99.99,,,-99.99,,2013-03-08 11:11:00,
2013-03-08 06:21:00,36.0,24.0,30.19,NW,308,12.0,-999.0,62,-99.99,,,-99.99,,2013-03-08 11:21:00,
2013-03-08 06:32:00,36.0,25.0,30.19,NW,309,12.0,-999.0,64,-99.99,,,-99.99,,2013-03-08 11:32:00,
2013-03-08 06:42:00,36.0,25.0,30.19,NW,309,12.0,-999.0,64,-99.99,,,-99.99,,2013-03-08 11:42:00,
2013-03-08 06:52:00,35.0,24.0,30.20,NNW,342,7.0,-999.0,65,-99.99,,,-99.99,,2013-03-08 11:52:00,
2013-03-08 07:02:00,35.0,26.0,30.20,North,359,6.0,-999.0,69,-99.99,,,-99.99,,2013-03-08 12:02:00,
2013-03-08 07:11:00,35.0,26.0,30.20,North,359,6.0,-999.0,69,-99.99,,,-99.99,,2013-03-08 12:11:00,
2013-03-08 07:22:00,35.0,27.0,30.20,NNE,16,4.0,-999.0,72,-99.99,,,-99.99,,2013-03-08 12:22:00,
2013-03-08 07:32:00,34.0,26.0,30.21,North,0,5.0,-999.0,71,-99.99,,,-99.99,,2013-03-08 12:32:00,
2013-03-08 07:43:00,34.0,26.0,30.21,North,0,5.0,-999.0,71,-99.99,,,-99.99,,2013-03-08 12:43:00,
2013-03-08 07:53:00,34.0,25.0,30.21,North,0,5.0,-999.0,70,-99.99,,,-99.99,,2013-03-08 12:53:00,
2013-03-08 08:01:00,34.0,25.0,30.22,NNW,336,4.0,-999.0,70,-99.99,,,-99.99,,2013-03-08 13:01:00,
2013-03-08 08:11:00,34.0,25.0,30.22,NNW,336,4.0,-999.0,70,-99.99,,,-99.99,,2013-03-08 13:11:00,
2013-03-08 08:22:00,35.0,25.0,30.22,North,352,9.0,-999.0,67,-99.99,,,-99.99,,2013-03-08 13:22:00,
2013-03-08 08:32:00,34.0,26.0,30.24,NW,318,9.0,-999.0,73,-99.99,,,-99.99,,2013-03-08 13:32:00,
2013-03-08 08:42:00,34.0,26.0,30.24,NW,318,9.0,-999.0,73,-99.99,,,-99.99,,2013-03-08 13:42:00,
2013-03-08 08:52:00,34.0,27.0,30.24,North,0,6.0,-999.0,76,-99.99,,,-99.99,,2013-03-08 13:52:00,
2013-03-08 09:03:00,34.0,26.0,30.24,NNW,346,7.0,-999.0,72,-99.99,,,-99.99,,2013-03-08 14:03:00,
2013-03-08 09:12:00,34.0,26.0,30.24,NNW,346,7.0,-999.0,72,-99.99,,,-99.99,,2013-03-08 14:12:00,
2013-03-08 09:22:00,35.0,26.0,30.24,NNE,14,8.0,-999.0,68,-99.99,,,-99.99,,2013-03-08 14:22:00,
2013-03-08 09:32:00,36.0,23.0,30.25,North,11,13.0,-999.0,60,-99.99,,,-99.99,,2013-03-08 14:32:00,
2013-03-08 09:42:00,36.0,23.0,30.25,North,11,13.0,-999.0,60,-99.99,,,-99.99,,2013-03-08 14:42:00,
2013-03-08 09:53:00,37.0,23.0,30.25,North,0,14.0,-999.0,57,-99.99,,,-99.99,,2013-03-08 14:53:00,
2013-03-08 10:03:00,37.0,23.0,30.25,North,0,14.0,-999.0,57,-99.99,,,-99.99,,2013-03-08 15:03:00,
2013-03-08 10:12:00,38.0,23.0,30.25,North,0,14.0,-999.0,55,-99.99,,,-99.99,,2013-03-08 15:12:00,
2013-03-08 10:22:00,38.0,23.0,30.25,North,0,14.0,-999.0,55,-99.99,,,-99.99,,2013-03-08 15:22:00,
2013-03-08 10:32:00,39.0,24.0,30.25,North,359,15.0,-999.0,54,-99.99,,,-99.99,,2013-03-08 15:32:00,
2013-03-08 10:42:00,39.0,24.0,30.25,North,359,15.0,-999.0,54,-99.99,,,-99.99,,2013-03-08 15:42:00,
2013-03-08 10:53:00,40.0,24.0,30.25,NW,305,13.0,-999.0,52,-99.99,,,-99.99,,2013-03-08 15:53:00,
2013-03-08 11:01:00,40.0,22.0,30.25,NNW,333,14.0,-999.0,48,-99.99,,,-99.99,,2013-03-08 16:01:00,
2013-03-08 11:11:00,40.0,22.0,30.25,NNW,333,14.0,-999.0,48,-99.99,,,-99.99,,2013-03-08 16:11:00,
2013-03-08 11:22:00,40.0,22.0,30.25,WNW,291,15.0,-999.0,49,-99.99,,,-99.99,,2013-03-08 16:22:00,
2013-03-08 11:32:00,41.0,22.0,30.24,NNW,337,14.0,-999.0,47,-99.99,,,-99.99,,2013-03-08 16:32:00,
2013-03-08 11:42:00,41.0,22.0,30.24,NNW,337,14.0,-999.0,47,-99.99,,,-99.99,,2013-03-08 16:42:00,
2013-03-08 11:52:00,41.0,23.0,30.24,North,354,15.0,-999.0,48,-99.99,,,-99.99,,2013-03-08 16:52:00,
2013-03-08 12:03:00,42.0,23.0,30.23,NW,325,15.0,-999.0,46,-99.99,,,-99.99,,2013-03-08 17:03:00,
2013-03-08 12:12:00,42.0,23.0,30.23,NW,325,15.0,-999.0,46,-99.99,,,-99.99,,2013-03-08 17:12:00,
2013-03-08 12:21:00,42.0,24.0,30.24,NNW,337,12.0,-999.0,48,-99.99,,,-99.99,,2013-03-08 17:21:00,
2013-03-08 12:32:00,42.0,23.0,30.23,NNW,333,12.0,-999.0,47,-99.99,,,-99.99,,2013-03-08 17:32:00,
2013-03-08 12:42:00,42.0,23.0,30.23,NNW,333,12.0,-999.0,47,-99.99,,,-99.99,,2013-03-08 17:42:00,
2013-03-08 12:52:00,43.0,24.0,30.23,NNW,328,12.0,-999.0,47,-99.99,,,-99.99,,2013-03-08 17:52:00,
2013-03-08 13:02:00,44.0,24.0,30.22,NW,326,13.0,-999.0,45,-99.99,,,-99.99,,2013-03-08 18:02:00,
2013-03-08 13:11:00,44.0,24.0,30.22,NW,326,13.0,-999.0,45,-99.99,,,-99.99,,2013-03-08 18:11:00,
2013-03-08 13:22:00,45.0,27.0,30.21,North,0,11.0,-999.0,49,-99.99,,,-99.99,,2013-03-08 18:22:00,
2013-03-08 13:32:00,45.0,25.0,30.21,NW,326,12.0,-999.0,46,-99.99,,,-99.99,,2013-03-08 18:32:00,
2013-03-08 13:42:00,45.0,25.0,30.21,NW,326,12.0,-999.0,46,-99.99,,,-99.99,,2013-03-08 18:42:00,
2013-03-08 13:52:00,44.0,25.0,30.21,NNW,340,13.0,-999.0,46,-99.99,,,-99.99,,2013-03-08 18:52:00,
2013-03-08 14:01:00,45.0,25.0,30.20,NW,326,12.0,-999.0,45,-99.99,,,-99.99,,2013-03-08 19:01:00,
2013-03-08 14:11:00,45.0,25.0,30.20,NW,326,12.0,-999.0,45,-99.99,,,-99.99,,2013-03-08 19:11:00,
2013-03-08 14:22:00,46.0,25.0,30.20,NNW,343,13.0,-999.0,44,-99.99,,,-99.99,,2013-03-08 19:22:00,
2013-03-08 14:32:00,45.0,25.0,30.19,North,359,11.0,-999.0,45,-99.99,,,-99.99,,2013-03-08 19:32:00,
2013-03-08 14:42:00,45.0,25.0,30.19,North,359,11.0,-999.0,45,-99.99,,,-99.99,,2013-03-08 19:42:00,
2013-03-08 14:52:00,45.0,25.0,30.20,NNW,329,12.0,-999.0,45,-99.99,,,-99.99,,2013-03-08 19:52:00,
2013-03-08 15:01:00,46.0,25.0,30.20,NW,304,12.0,-999.0,44,-99.99,,,-99.99,,2013-03-08 20:01:00,
2013-03-08 15:11:00,46.0,25.0,30.20,NW,304,12.0,-999.0,44,-99.99,,,-99.99,,2013-03-08 20:11:00,
2013-03-08 15:22:00,46.0,25.0,30.20,North,350,14.0,-999.0,44,-99.99,,,-99.99,,2013-03-08 20:22:00,
2013-03-08 15:32:00,46.0,25.0,30.21,North,0,14.0,-999.0,43,-99.99,,,-99.99,,2013-03-08 20:32:00,
2013-03-08 15:42:00,46.0,25.0,30.21,North,0,14.0,-999.0,43,-99.99,,,-99.99,,2013-03-08 20:42:00,
2013-03-08 15:53:00,47.0,26.0,30.21,North,357,10.0,-999.0,43,-99.99,,,-99.99,,2013-03-08 20:53:00,
2013-03-08 16:02:00,47.0,26.0,30.22,NNW,329,9.0,-999.0,43,-99.99,,,-99.99,,2013-03-08 21:02:00,
2013-03-08 16:11:00,47.0,26.0,30.22,NNW,329,9.0,-999.0,43,-99.99,,,-99.99,,2013-03-08 21:11:00,
2013-03-08 16:22:00,46.0,25.0,30.22,NNW,329,11.0,-999.0,44,-99.99,,,-99.99,,2013-03-08 21:22:00,
2013-03-08 16:32:00,46.0,26.0,30.22,NNW,333,11.0,-999.0,45,-99.99,,,-99.99,,2013-03-08 21:32:00,
2013-03-08 16:42:00,46.0,26.0,30.22,NNW,333,11.0,-999.0,45,-99.99,,,-99.99,,2013-03-08 21:42:00,
2013-03-08 16:52:00,46.0,26.0,30.23,NNE,28,9.0,-999.0,45,-99.99,,,-99.99,,2013-03-08 21:52:00,
2013-03-08 17:01:00,46.0,26.0,30.24,NNW,330,9.0,-999.0,45,-99.99,,,-99.99,,2013-03-08 22:01:00,
2013-03-08 17:11:00,46.0,26.0,30.24,NNW,330,9.0,-999.0,45,-99.99,,,-99.99,,2013-03-08 22:11:00,
2013-03-08 17:22:00,46.0,26.0,30.24,NNW,329,6.0,-999.0,46,-99.99,,,-99.99,,2013-03-08 22:22:00,
2013-03-08 17:32:00,46.0,26.0,30.25,NW,325,9.0,-999.0,46,-99.99,,,-99.99,,2013-03-08 22:32:00,
2013-03-08 17:42:00,46.0,26.0,30.25,NW,325,9.0,-999.0,46,-99.99,,,-99.99,,2013-03-08 22:42:00,
2013-03-08 17:53:00,46.0,26.0,30.25,North,359,7.0,-999.0,46,-99.99,,,-99.99,,2013-03-08 22:53:00,
2013-03-08 18:02:00,46.0,26.0,30.26,NNW,332,7.0,-999.0,46,-99.99,,,-99.99,,2013-03-08 23:02:00,
2013-03-08 18:12:00,46.0,26.0,30.26,NNW,332,7.0,-999.0,46,-99.99,,,-99.99,,2013-03-08 23:12:00,
2013-03-08 18:22:00,46.0,26.0,30.26,North,8,7.0,-999.0,46,-99.99,,,-99.99,,2013-03-08 23:22:00,
2013-03-08 18:32:00,45.0,25.0,30.27,NNW,328,6.0,-999.0,46,-99.99,,,-99.99,,2013-03-08 23:32:00,
2013-03-08 18:42:00,45.0,25.0,30.27,NNW,328,6.0,-999.0,46,-99.99,,,-99.99,,2013-03-08 23:42:00,
2013-03-08 18:53:00,45.0,26.0,30.27,North,356,6.0,-999.0,47,-99.99,,,-99.99,,2013-03-08 23:53:00,
2013-03-08 19:02:00,44.0,26.0,30.28,NNW,343,6.0,-999.0,48,-99.99,,,-99.99,,2013-03-09 00:02:00,
2013-03-08 19:12:00,44.0,26.0,30.28,NNW,343,6.0,-999.0,48,-99.99,,,-99.99,,2013-03-09 00:12:00,
2013-03-08 19:22:00,44.0,26.0,30.28,NW,326,4.0,-999.0,48,-99.99,,,-99.99,,2013-03-09 00:22:00,
2013-03-08 19:32:00,43.0,25.0,30.28,NNW,333,5.0,-999.0,49,-99.99,,,-99.99,,2013-03-09 00:32:00,
2013-03-08 19:42:00,43.0,25.0,30.28,NNW,333,5.0,-999.0,49,-99.99,,,-99.99,,2013-03-09 00:42:00,
2013-03-08 19:52:00,42.0,25.0,30.29,NW,315,0.0,-999.0,50,-99.99,,,-99.99,,2013-03-09 00:52:00,
2013-03-08 20:02:00,42.0,25.0,30.29,North,349,0.0,-999.0,50,-99.99,,,-99.99,,2013-03-09 01:02:00,
2013-03-08 20:12:00,41.0,24.0,30.31,NNW,335,1.0,-999.0,51,-99.99,,,-99.99,,2013-03-09 01:12:00,
2013-03-08 20:22:00,41.0,24.0,30.31,NNW,335,1.0,-999.0,51,-99.99,,,-99.99,,2013-03-09 01:22:00,
2013-03-08 20:32:00,41.0,25.0,30.31,NNW,333,3.0,-999.0,53,-99.99,,,-99.99,,2013-03-09 01:32:00,
2013-03-08 20:42:00,41.0,25.0,30.31,NNW,333,3.0,-999.0,53,-99.99,,,-99.99,,2013-03-09 01:42:00,
2013-03-08 20:52:00,40.0,24.0,30.31,NW,322,1.0,-999.0,53,-99.99,,,-99.99,,2013-03-09 01:52:00,
2013-03-08 21:01:00,40.0,24.0,30.31,NNW,336,2.0,-999.0,53,-99.99,,,-99.99,,2013-03-09 02:01:00,
2013-03-08 21:11:00,40.0,24.0,30.31,NNW,336,2.0,-999.0,53,-99.99,,,-99.99,,2013-03-09 02:11:00,
2013-03-08 21:21:00,40.0,24.0,30.31,WNW,298,1.0,-999.0,53,-99.99,,,-99.99,,2013-03-09 02:21:00,
2013-03-08 21:31:00,39.0,23.0,30.31,North,359,1.0,-999.0,53,-99.99,,,-99.99,,2013-03-09 02:31:00,
2013-03-08 21:41:00,39.0,24.0,30.32,East,90,0.0,-999.0,54,-99.99,,,-99.99,,2013-03-09 02:41:00,
2013-03-08 21:51:00,39.0,24.0,30.32,East,90,0.0,-999.0,54,-99.99,,,-99.99,,2013-03-09 02:51:00,
2013-03-08 22:01:00,39.0,24.0,30.32,NNW,333,0.0,-999.0,54,-99.99,,,-99.99,,2013-03-09 03:01:00,
2013-03-08 22:11:00,39.0,24.0,30.32,NNW,333,0.0,-999.0,54,-99.99,,,-99.99,,2013-03-09 03:11:00,
2013-03-08 22:21:00,38.0,23.0,30.32,WNW,294,0.0,-999.0,54,-99.99,,,-99.99,,2013-03-09 03:21:00,
2013-03-08 22:31:00,38.0,23.0,30.32,NW,315,0.0,-999.0,55,-99.99,,,-99.99,,2013-03-09 03:31:00,
2013-03-08 22:41:00,38.0,23.0,30.32,NW,315,0.0,-999.0,55,-99.99,,,-99.99,,2013-03-09 03:41:00,
2013-03-08 22:52:00,38.0,23.0,30.32,NW,319,1.0,-999.0,55,-99.99,,,-99.99,,2013-03-09 03:52:00,
2013-03-08 23:01:00,37.0,23.0,30.32,NW,319,0.0,-999.0,57,-99.99,,,-99.99,,2013-03-09 04:01:00,
2013-03-08 23:11:00,37.0,23.0,30.32,NW,319,0.0,-999.0,57,-99.99,,,-99.99,,2013-03-09 04:11:00,
2013-03-08 23:22:00,36.0,23.0,30.31,NNE,25,0.0,-999.0,58,-99.99,,,-99.99,,2013-03-09 04:22:00,
2013-03-08 23:32:00,36.0,23.0,30.31,NNE,25,0.0,-999.0,59,-99.99,,,-99.99,,2013-03-09 04:32:00,
2013-03-08 23:42:00,36.0,23.0,30.31,NNE,25,0.0,-999.0,59,-99.99,,,-99.99,,2013-03-09 04:42:00,
2013-03-08 23:52:00,35.0,23.0,30.31,East,95,0.0,-999.0,60,-99.99,,,-99.99,,2013-03-09 04:52:00,